User: anonymous   Login
Location: Durham
(35.9940°N, 78.8990°W)
Time: 00:09:42
(UTC-05:00)
Language:

Iridium 63 - Orbit

View from above orbital plane
View from above orbital plane
View from above satellite
View from above satellite

Ground track
Ground track

The orbit data is extracted from the following two-line orbital elements,

1 25286U 98021B   18023.34471256  .00000093  00000-0  25827-4 0  9999
2 25286  86.4019 132.3543 0002288  94.8738 322.6919 14.34706142 36613
Epoch (UTC): 23 January 2018 08:16:23
Eccentricity: 0.0002288
inclination: 86.4019°
perigee height: 774 km
apogee height: 777 km
right ascension of ascending node: 132.3543°
argument of perigee: 94.8738°
revolutions per day: 14.34706142
mean anomaly at epoch: 322.6919°
orbit number at epoch: 3661

The dashed part of the orbit path shows where the satellite is in the earth's shadow,  

DLR